❰ Current Conditions

Special Weather Statement
PATCHY BLACK ICE ACROSS MUCH OF SOUTHERN NEW ENGLAND EARLY THIS MORNING

Special Weather Statement issued October 31 at 4:35AM EDT by NWS Boston/Norton MA

Patchy black ice is likely early this morning as temperatures in the 20s results in moisture freezing on untreated roads. This is especially true on bridges and overpasses. Motorists should exercise caution if traveling early this morning. Any pavement that looks damp may be icy. Temperatures will rise above freezing around mid to late morning which will alleviate any problems.
NWS Regional Weather Roundup - New England Area

REGIONAL WEATHER ROUNDUP
NATIONAL WEATHER SERVICE BOSTON/NORTON MA
500 AM EDT SAT OCT 31 2020

NOTE:  "FAIR" INDICATES FEW OR NO CLOUDS BELOW 12,000 FEET WITH NO 
SIGNIFICANT WEATHER AND/OR OBSTRUCTIONS TO VISIBILITY.

MAZALL-311000-
EASTERN MASSACHUSETTS
  
CITY           SKY/WX    TMP DP  RH WIND       PRES   REMARKS
BOSTON         CLEAR     29  23  78 NW9       30.38R WCI  20          
BEVERLY        CLEAR     24  22  91 NW7       30.36R WCI  16          
LAWRENCE       CLEAR     20  18  92 S3        30.38R                  
BEDFORD        CLEAR     18  15  88 CALM      30.36R                  
BLUE HILL        N/A     24  22  91 NW13      30.32R WCI  12          
NORWOOD        CLEAR     20  16  84 CALM      30.38R FOG              
MARSHFIELD     CLEAR     32  30  93 NW6       30.36R WCI  26          
PLYMOUTH       CLEAR     27  24  89 NW5       30.35R WCI  22          
TAUNTON        CLEAR     22  19  89 W3        30.37R                  
NEW BEDFORD    CLEAR     28  24  85 N3        30.35R                  
$$

MAZALL-311000-
CAPE COD AND THE ISLANDS
  
CITY           SKY/WX    TMP DP  RH WIND       PRES   REMARKS
FALMOUTH       MOCLDY    30  25  80 NW7       30.33R WCI  23          
HYANNIS        PTCLDY    36  31  82 NW6       30.32R WCI  31          
CHATHAM        CLEAR     36  27  69 N5        30.34R                  
NANTUCKET      CLEAR    N/A N/A N/A N9        30.32R                  
MARTHAS VNYRD  CLEAR     35  29  78 N8        30.35R WCI  29          
$$
 
MAZALL-311000-
CENTRAL AND WESTERN MASSACHUSETTS
  
CITY           SKY/WX    TMP DP  RH WIND       PRES   REMARKS
WORCESTER      CLEAR     26  19  74 NW9       30.32R WCI  17          
FITCHBURG      CLEAR     23  20  88 N3        30.36R                  
ORANGE         CLEAR     19  17  92 CALM      30.37R FOG              
SPRINGFIELD    CLEAR     19  16  90 CALM      30.36R                  
WESTFIELD      CLEAR     23  23 100 N3        30.37R                  
NORTH ADAMS    FOG       24  22  91 SW3       30.39R VSB 1/4          
PITTSFIELD     CLEAR     22  19  89 CALM      30.33R                  
$$
 
RIZALL-311000-
RHODE ISLAND
  
CITY           SKY/WX    TMP DP  RH WIND       PRES   REMARKS
PROVIDENCE     CLEAR     27  25  92 NW3       30.38R                  
NEWPORT        CLEAR     30  26  85 N5        30.35R WCI  25          
BLOCK ISLAND   CLEAR     36  27  69 N9        30.36R WCI  29          
SMITHFIELD     CLEAR     21  21 100 N5        30.36R WCI  15          
WESTERLY       CLEAR     28  24  85 N3        30.38R                  
$$
 
CTZALL-311000-
CONNECTICUT
  
CITY           SKY/WX    TMP DP  RH WIND       PRES   REMARKS
BRADLEY INTL   CLEAR     26  23  88 CALM      30.38R                  
HARTFORD       FOG       26  24  92 CALM      30.39R VSB 1/2          
BRIDGEPORT     CLEAR     31  27  85 NW5       30.39R WCI  26          
DANBURY        CLEAR     26  24  92 CALM      30.39R                  
GROTON         CLEAR     27  25  92 N6        30.38R WCI  20          
NEW HAVEN      CLEAR     30  26  85 N5        30.38R WCI  25          
CHESTER        FAIR      28  27  93 CALM      30.36R                  
MERIDEN        CLEAR     22  21  96 CALM      30.39R                  
WILLIMANTIC    CLEAR     23  22  96 NE3       30.37S                  
OXFORD         CLEAR     24  23  96 CALM      30.36R                  
$$

MEZ002-015-021-024-NHZ003-005-008-011-012-014-VTZ005-008-311000-
NORTHERN NEW ENGLAND
  
CITY           SKY/WX    TMP DP  RH WIND       PRES   REMARKS
PORTLAND ME    CLEAR     24  18  77 CALM      30.37R                  
BANGOR ME      CLEAR     23  17  78 CALM      30.33R                  
CONCORD NH     CLEAR     20  15  81 CALM      30.36R                  
MANCHESTER NH  CLEAR     22  18  85 CALM      30.35R                  
NASHUA NH      CLEAR     17  17 100 CALM      30.37R                  
PORTSMOUTH NH  CLEAR     25  21  85 W3        30.35R                  
JAFFREY NH     CLEAR     14  10  84 CALM      30.33R                  
KEENE NH       FOG       23  22  96 CALM      30.38R VSB 1/2          
BURLINGTON VT  CLEAR     22  18  85 CALM      30.40R                  
MT. WASHINGTON CLEAR     10 -26  18 NW37        N/A  WCI -14          
$$

NYZ052-076-311000-
EASTERN NEW YORK
  
CITY           SKY/WX    TMP DP  RH WIND       PRES   REMARKS
ALBANY         PTCLDY    22  22 100 CALM      30.41R                  
NEW YORK CITY  PTCLDY    37  29  72 N5        30.39R                  
$$
 
ANZALL-311000-
MARINE OBSERVATIONS
  
STATION/POSITION TIME  TEMP    WIND        PRES    VSBY  WAVE
                       AIR SEA DIR/SP/G                  HT/PER
                 (UTC) (F)     (DEG/KT/KT) (MB)    (MI)  (FT/S)
BOSTON BUOY      0850   39 54  340/ 16/ 19 1028.4R         8/ 9
BUZZARDS BAY     0800          350/ 18/ 19 1027.5R
NANTUCKET SOUND  0850      55  340/ 14/ 17   N/A           2/ 3
MASS BAY-STELLWA 0804   39 54  330/ 16/ 19 1026.3R  1 7/8  9/11
ISLE OF SHOALS   0800   35     320/ 13/ 14 1027.0R
S OF BLOCK IS    0826      60                N/A           6/12
$$

......................KEY.........................
  SKY/WX - SKY CONDITION/PRESENT WEATHER
  TMP    - TEMPERATURE IN FAHRENHEIT
  DWPT   - DEWPOINT IN FAHRENHEIT
  RH     - RELATIVE HUMIDITY IN PERCENT
  WIND   - DIRECTION AND SPEED IN MPH
  PRES   - MEAN SEA LEVEL PRESSURE IN INCHES OF HG
  WCI    - WIND CHILL INDEX
  VSB    - VISIBILITY IN MILES
  HX     - HEAT INDEX
  TC     - TEMPERATURE IN CELSIUS
  VRB    - VARIABLE WIND DIRECTION